Location: Newark
(11.0000°N, 122.6717°E)
Time: 21:49:07
(UTC+00:00)

LightSail 2 - Visible Passes

Search period start: 07 December 2019 00:00
Search period end: 17 December 2019 00:00
Orbit: 696 x 730 km, 24.0° (Epoch: 06 December)

Date Brightness Start Highest point End Pass type
(mag) Time Alt. Az. Time Alt. Az. Time Alt. Az.
07 Dec 6.4 10:41:38 10° NW 10:45:42 23° N 10:46:07 23° NNE visible
08 Dec 6.7 09:43:35 10° NW 09:47:25 21° N 09:51:14 10° NE visible
08 Dec 6.9 11:28:42 10° NW 11:30:54 23° NW 11:30:54 23° NW visible
09 Dec 6.1 10:30:45 10° NW 10:35:18 31° NNE 10:36:46 26° NE visible
10 Dec 5.7 11:17:50 10° WNW 11:21:44 47° NNW 11:21:44 47° NNW visible
11 Dec 5.5 10:19:49 10° NW 10:24:47 46° NNE 10:27:48 22° E visible
11 Dec 7.5 12:05:20 10° WNW 12:06:49 19° W 12:06:49 19° W visible
12 Dec 5.1 11:07:05 10° WNW 11:12:15 78° SSW 11:13:01 63° SE visible
13 Dec 5.1 10:08:56 10° WNW 10:14:08 76° NNE 10:19:17 10° ESE visible
13 Dec 7.0 11:55:06 10° W 11:58:22 27° SW 11:58:22 27° SW visible
14 Dec 6.1 10:56:34 10° W 11:01:30 44° SSW 11:04:46 19° SE visible
15 Dec 5.6 09:58:12 10° WNW 10:03:23 64° SSW 10:08:30 10° ESE visible
15 Dec 7.5 11:45:29 10° WSW 11:48:49 17° SSW 11:50:19 15° S visible
16 Dec 7.2 10:46:28 10° W 10:50:41 25° SSW 10:54:53 10° SSE visible
16 Dec 8.0 21:29:36 10° S 21:31:34 12° SSE 21:33:32 10° SE visible
